Portal de Información Aeronáutica de la República Argentina

Bienvenidos


BAiresFlight

Bienvenidos a BAiresFlight, en este sitio encontrarán toda la información relativa al vuelo. Páginas de interés, archivos enviados por usuarios, documentos, normativas, etc. Desde BAiresFlight apuntamos a que este sitio sea un lugar de consulta, de incorporación de conocimientos, vínculos a sitios de interés relacionados con el vuelo, y por sobre todo, privilegiar el rápido y ágil acceso a la información, todo esto, sin dejar de ser un lugar de encuentro para pilotos, escuelas de vuelo, alumnos, aeroclubes, tripulantes de cabina, instructores, etc. donde buscar e intercambiar experiencias y conocimiento. Paulatinamente, iremos incorporando nuevos documentos, como así también renovando y agregando contenido, y por tal motivo, lo invitamos a regresar. Desde ya, muchas gracias por visitarnos, y compartir este sitio con sus colegas y amigos. Los invitamos a conocer BAiresFlight Portal de información aeronáutica de la República Argentina.

Importante:

Este portal, eventualmente puede emitir comunicados a través de ventanas emergentes, por tal motivo se recomienda permitir las mismas, para esto, deberá ir a la parte de configuración de su explorador y buscar la opción “Permitir ventanas emergentes

BAiresFlight

 

Vuelos de Bautismo en General Rodríguez

12299162_448838941973264_695990146714630102_n

BAiresFlight en Facebook


Aviación Civil Argentina

BAiresFlight

Available data for SABE from the past 2 hours

METAR
SABE 282200Z 11010KT CAVOK 09/06 Q1027
SABE 282100Z 11010KT CAVOK 09/06 Q1026
TAF
TAF SABE 281700Z 2818/2918 05010KT 9999 SCT025 BKN100 TX13/2918Z TN05/2910Z BECMG 2900/2902 07015KT CAVOK